Regional Weather Roundup
Issued by NWS

Home | Current Version | Previous Version | Graphics & Text | Print | Product List | Glossary On
Versions: 1 2 3 4 5 6 7 8 9 10 11 12 13 14 15 16 17 18 19 20 21 22 23 24 25 26 27
000
ASUS45 KBOI 280210
RWRID

IDAHO REGIONAL WEATHER ROUNDUP
NATIONAL WEATHER SERVICE BOISE ID
800 PM MDT SAT AUG 27 2016

NOTE: "FAIR" INDICATES FEW OR NO CLOUDS BELOW 12000 FEET
WITH NO SIGNIFICANT WEATHER AND/OR OBSTRUCTIONS TO VISIBILITY

IDZ012-014-280300-
SOUTHWEST IDAHO


CITY           SKY/WX    TMP DP  RH WIND       PRES   REMARKS
BOISE          CLEAR     87  31  13 N6        29.84F
CALDWELL       CLEAR     82  49  31 E6        29.81F
MOUNTAIN HOME  CLEAR     88  31  12 N8        29.85S
$$

IDZ016-017-280300-
SOUTHCENTRAL IDAHO


CITY           SKY/WX    TMP DP  RH WIND       PRES   REMARKS
BURLEY         CLEAR     73  43  33 S5        29.95S
JEROME         CLEAR     79  40  24 W3        29.95S
TWIN FALLS     CLEAR     74  39  28 SE6       29.95F
$$

IDZ019>023-280300-
SOUTHEAST IDAHO


CITY           SKY/WX    TMP DP  RH WIND       PRES   REMARKS
IDAHO FALLS    CLOUDY    76  32  20 S10       29.98S
POCATELLO      CLOUDY    77  33  20 SW10      29.99R
REXBURG        CLOUDY    74  33  22 S12       29.98S
$$

IDZ006-010-011-018-031-032-280300-
CENTRAL IDAHO MOUNTAINS


CITY           SKY/WX    TMP DP  RH WIND       PRES   REMARKS
MCCALL         CLEAR     73  32  22 SE8       29.99S
HAILEY         CLEAR     75  28  17 SW12      30.01R
STANLEY          N/A     65  27  23 CALM      30.10R
SALMON         CLEAR     79  34  19 SW10      29.82R
CHALLIS        CLOUDY    76  25  15 SW9       29.95R HAZE
$$

IDZ002-004-006-007-026-280300-
NORTHERN IDAHO


CITY           SKY/WX    TMP DP  RH WIND       PRES   REMARKS
LEWISTON       CLOUDY    87  39  18 W15G23    29.74R
LOWELL           N/A     77  54  44 CALM      29.74R
COEUR D`ALENE  CLOUDY    79  43  27 S15G23    29.72R
MULLAN PASS    CLOUDY    61  36  39 SW10G18   29.96S
$$




USA.gov is the U.S. government's official web portal to all federal, state and local government web resources and services.